Theta_e
302 301 299 298 296 296 299 298 296 294 292 290 289 289 288 288 288 288 287 287 287 287 286 288 289 289 289
302 301 299 297 295 296 299 297 295 293 291 290 288 288 288 288 288 287 287 286 286 286 286 286 286 288 288
303 302 300 298 296 297 298 297 295 293 290 289 288 288 287 287 287 287 286 286 286 285 285 285 285 286 287
301 302 300 297 296 298 298 297 295 292 289 288 287 287 287 287 287 286 286 286 285 285 284 284 284 284 285
301 301 300 298 297 299 298 296 293 291 289 287 287 287 287 287 286 286 286 285 284 284 283 283 283 283 283
301 300 300 298 298 299 298 296 293 291 289 287 287 287 286 286 286 286 285 284 284 283 283 283 283 282 282
300 300 299 298 299 299 298 295 292 290 288 287 286 286 286 286 285 285 284 284 283 283 283 282 282 282 282
298 297 296 297 298 297 295 294 292 289 287 287 286 286 286 286 285 284 284 284 283 283 282 282 282 282 282
296 295 296 297 297 297 294 296 294 287 287 287 287 286 286 285 284 284 283 283 283 283 282 282 282 282 281
296 295 296 296 297 296 298 297 289 286 286 286 286 286 286 285 284 284 284 283 283 283 283 282 282 281 281
295 294 295 296 298 297 295 291 287 286 286 286 285 285 285 285 285 284 284 283 283 283 283 282 281 281 281
294 294 295 298 297 295 292 289 286 286 285 285 285 284 284 284 284 284 284 283 282 282 282 282 281 281 280
293 294 296 296 294 293 292 286 285 285 285 285 284 284 284 283 283 283 282 283 281 281 281 281 281 280 280
293 296 295 295 293 293 286 286 285 285 284 284 284 284 283 282 282 282 280 280 280 280 280 281 281 280 280
295 295 295 294 294 287 286 285 284 284 284 284 283 283 283 282 282 281 280 281 280 280 280 280 281 280 280
295 295 294 293 287 287 285 284 284 284 284 284 283 283 283 282 281 280 281 280 280 280 280 280 280 280 280
294 293 293 287 287 287 284 284 284 284 284 283 283 283 283 283 282 280 280 280 279 279 279 279 279 280 279
Wind_Speed
18 16 15 13 10 7 3 2 4 8 10 10 10 11 12 13 14 15 17 19 20 21 22 22 22 22 24
17 17 16 14 11 8 4 3 5 8 9 9 9 10 11 12 14 15 17 19 20 22 23 24 24 24 24
13 16 17 15 12 9 5 4 6 9 10 9 9 10 11 12 14 15 17 19 21 22 23 24 25 24 25
13 15 17 16 14 10 6 5 7 9 10 9 8 9 11 13 14 16 18 19 21 22 23 24 25 26 27
16 18 18 16 14 10 7 6 7 9 10 9 9 10 11 13 13 15 17 18 19 21 22 24 26 28 29
17 17 15 14 13 9 8 7 7 10 10 9 9 11 12 12 12 15 15 17 19 21 23 25 26 27 29
13 14 14 12 11 10 7 6 8 9 9 10 9 11 12 11 11 13 14 17 20 21 24 26 27 28 29
15 12 13 13 12 9 7 6 8 11 9 9 10 10 11 7 11 11 15 18 21 22 24 26 28 29 29
17 16 15 14 11 8 5 7 11 11 9 9 10 11 8 4 10 12 16 19 21 22 25 27 29 31 30
19 18 16 14 11 6 5 10 10 8 9 8 8 10 6 5 10 13 17 20 22 22 25 27 30 33 32
18 17 16 13 8 5 8 9 8 9 8 8 8 8 7 10 11 14 19 21 22 23 24 26 28 30 33
18 17 15 10 7 7 9 9 8 8 9 8 9 9 9 12 15 17 19 22 23 28 28 28 27 27 27
18 16 13 10 7 9 11 8 8 8 8 9 11 11 11 13 18 21 24 23 23 29 29 29 31 30 33
17 15 12 9 11 12 8 9 8 8 9 10 11 12 13 14 18 19 20 25 29 30 33 31 31 27 29
17 15 12 13 13 9 9 8 8 8 9 10 11 13 15 18 17 18 22 26 29 32 35 36 32 30 28
17 15 14 12 10 9 9 9 9 9 10 11 12 13 16 17 16 19 26 29 31 32 32 38 39 31 27
16 14 12 12 11 10 9 10 10 11 11 11 13 16 19 22 20 22 28 30 34 35 33 33 36 33 28
Wind_Direction
188 189 193 194 197 197 217 302 323 336 336 336 335 338 342 344 345 347 349 349 349 350 352 352 351 349 348
189 194 193 198 200 204 222 284 317 321 323 324 329 333 335 336 340 342 343 343 344 349 352 350 349 348 347
203 198 200 200 203 210 225 269 302 311 315 318 324 325 328 331 333 337 338 342 344 344 348 351 350 348 346
205 206 204 200 202 211 232 271 294 305 309 312 312 315 322 327 330 335 339 341 343 344 347 351 349 347 344
214 210 207 204 207 212 230 261 285 297 301 299 302 308 319 323 326 332 336 339 342 344 345 346 344 343 344
221 218 214 205 206 214 234 258 280 293 288 286 291 303 313 318 322 331 336 341 342 341 340 341 340 340 342
238 226 216 211 209 218 237 268 283 291 283 277 279 299 310 309 323 332 337 338 338 339 340 339 340 341 342
210 212 204 206 205 217 235 269 301 285 275 278 285 299 305 284 324 332 337 335 336 337 340 340 340 341 342
205 201 204 202 204 218 244 309 301 276 270 276 293 310 304 261 330 329 335 334 336 336 340 340 339 340 341
205 204 202 204 210 217 286 306 276 276 265 279 300 316 308 254 326 322 330 332 336 334 340 341 341 339 341
205 202 201 201 208 251 292 284 266 263 274 289 305 319 316 313 322 325 330 330 332 333 339 341 342 340 337
203 200 199 202 216 267 278 269 259 272 285 301 315 324 323 322 330 328 328 334 332 335 339 340 340 339 340
200 196 200 209 242 259 280 248 257 275 291 308 313 320 327 331 330 334 326 334 332 333 335 339 340 343 339
195 203 206 240 248 270 238 250 265 279 296 307 313 316 321 327 331 327 326 327 332 335 333 338 340 343 340
204 209 237 250 260 230 238 252 263 278 297 305 306 311 317 325 330 326 328 330 333 335 333 333 341 346 342
214 237 247 253 222 233 244 253 266 282 295 301 303 305 309 324 333 336 333 335 333 333 333 332 336 346 341
227 234 237 215 230 235 244 256 272 288 301 306 308 311 318 325 336 347 335 332 330 330 335 335 334 340 341